Location: ????????
(55.7667°N, 37.4833°E)
Time: 05:32:10
(UTC+00:00)

Cosmos 1821 Rocket - Pass Details

Date: 19 May 2025
Orbit: 943 x 1004 km, 82.9° (Epoch: 15 June)

Event Time Altitude Azimuth Distance (km) Brightness Sun altitude
Rises 18:41:06 0° 349° (NNW) 3,651 8.3 -6.6°
Reaches altitude 10° 18:43:41 10° 353° (N) 2,694 7.4 -6.8°
Maximum altitude 18:49:43 56° 72° (ENE) 1,123 4.3 -7.3°
Drops below altitude 10° 18:55:41 10° 150° (SSE) 2,660 5.6 -7.8°
Enters shadow 18:55:51 - 150° (SSE) 2,721 5.7 -7.8°
